Mount Pleasant, IA

10:03 PM CDT on May 25, 2017 (GMT -0500)
Mount Pleasant Municipal

Weather History for KMPZ - April, 2012

Change the Weather History Date:

Monday, April 23, 2012

  Actual Average Record
Temperature  
Mean Temperature 48 °F -  
Max Temperature 61 °F 64 °F 84 °F (1960)
Min Temperature 36 °F 44 °F 27 °F (1956)
Degree Days  
Heating Degree Days 16    
Moisture  
Dew Point 35 °F    
Average Humidity 60    
Maximum Humidity 89    
Minimum Humidity 35    
Precipitation  
Precipitation 0.00 in - - ()
Sea Level Pressure  
Sea Level Pressure 30.06 in    
Wind  
Wind Speed 8 mph (NW)    
Max Wind Speed 21 mph    
Max Gust Speed 28 mph    
Visibility 10 miles    
Events      
Averages and records for this station are not official NWS values.
T = Trace of Precipitation, MM = Missing Value Source: NWS Daily Summary

Daily Weather History Graph

Daily Weather History Graph

Search for Another Location

Airport or City:

Trip Planner

Search our weather history database for the weather conditions in past years. The results will help you decide how hot, cold, wet, or windy it might be!

Date:

Astronomy

Apr. 23, 2012 Rise Set
Actual Time 6:14 AM CDT 7:54 PM CDT
Civil Twilight 5:45 AM CDT 8:24 PM CDT
Nautical Twilight 5:09 AM CDT 8:59 PM CDT
Astronomical Twilight 4:32 AM CDT 9:37 PM CDT
Moon 7:24 AM CDT (4/23) 10:26 PM CDT (4/23)
Length of Visible Light 14h 38m
Length of Day
13h 40m
Waxing Crescent, 5% of the Moon is Illuminated
Apr 23
Waxing Crescent
Apr 29
First Quarter
May 5
Full
May 12
Last Quarter
May 20
New

Hourly Weather History & Observations

Time (CDT) Temp. Windchill Dew Point Humidity Pressure Visibility Wind Dir Wind Speed Gust Speed Precip Events Conditions
12:15 AM 41.4 °F 39.4 °F 30.2 °F 65% 30.17 in 10.0 mi NNW 3.5 mph - N/A   Clear
12:35 AM 39.4 °F 37.2 °F 30.7 °F 71% 30.16 in 10.0 mi NW 3.5 mph - N/A   Clear
12:55 AM 39.7 °F 37.6 °F 30.2 °F 69% 30.16 in 10.0 mi NNW 3.5 mph - N/A   Clear
1:15 AM 38.5 °F 36.1 °F 30.4 °F 73% 30.16 in 10.0 mi NW 3.5 mph - N/A   Clear
1:35 AM 36.9 °F 33.1 °F 32.2 °F 83% 30.15 in 10.0 mi WNW 4.6 mph - N/A   Clear
1:55 AM 37.8 °F 34.2 °F 30.7 °F 76% 30.15 in 10.0 mi WNW 4.6 mph - N/A   Clear
2:15 AM 38.8 °F 35.4 °F 30.2 °F 71% 30.15 in 10.0 mi NW 4.6 mph - N/A   Clear
2:35 AM 39.6 °F 36.3 °F 30.6 °F 70% 30.15 in 10.0 mi NW 4.6 mph - N/A   Clear
2:55 AM 38.7 °F 34.3 °F 31.3 °F 75% 30.14 in 10.0 mi WNW 5.8 mph - N/A   Clear
3:15 AM 38.3 °F 35.9 °F 31.1 °F 75% 30.13 in 10.0 mi WNW 3.5 mph - N/A   Clear
3:35 AM 37.6 °F 33.1 °F 31.6 °F 79% 30.14 in 10.0 mi WNW 5.8 mph - N/A   Clear
3:55 AM 37.6 °F 33.1 °F 31.6 °F 79% 30.14 in 10.0 mi WNW 5.8 mph - N/A   Clear
4:15 AM 37.6 °F 32.3 °F 32.0 °F 80% 30.13 in 10.0 mi WNW 6.9 mph - N/A   Clear
4:35 AM 38.3 °F 33.2 °F 32.5 °F 80% 30.13 in 10.0 mi NW 6.9 mph - N/A   Clear
4:55 AM 38.7 °F 34.3 °F 33.3 °F 81% 30.13 in 10.0 mi NW 5.8 mph - N/A   Clear
5:15 AM 38.7 °F 34.3 °F 33.8 °F 83% 30.13 in 10.0 mi NW 5.8 mph - N/A   Clear
5:35 AM 38.7 °F 33.6 °F 34.0 °F 83% 30.13 in 10.0 mi NW 6.9 mph - N/A   Clear
5:55 AM 38.3 °F 33.2 °F 34.2 °F 85% 30.13 in 10.0 mi NW 6.9 mph - N/A   Clear
6:15 AM 37.8 °F 34.2 °F 34.2 °F 87% 30.13 in 10.0 mi NW 4.6 mph - N/A   Clear
6:35 AM 38.1 °F 33.7 °F 34.9 °F 88% 30.13 in 10.0 mi NW 5.8 mph - N/A   Clear
6:55 AM 38.5 °F 34.1 °F 35.4 °F 89% 30.13 in 10.0 mi NW 5.8 mph - N/A   Clear
7:15 AM 40.5 °F 35.1 °F 36.1 °F 85% 30.14 in 10.0 mi NW 8.1 mph - N/A   Clear
7:35 AM 41.7 °F 36.7 °F 36.7 °F 82% 30.14 in 10.0 mi NNW 8.1 mph - N/A   Clear
7:55 AM 43.0 °F 37.7 °F 37.4 °F 81% 30.14 in 10.0 mi NW 9.2 mph - N/A   Clear
8:15 AM 44.6 °F 39.7 °F 38.1 °F 78% 30.14 in 10.0 mi NNW 9.2 mph - N/A   Clear
8:35 AM 46.4 °F 41.9 °F 38.8 °F 75% 30.14 in 10.0 mi NNW 9.2 mph - N/A   Clear
8:55 AM 47.3 °F - 39.0 °F 73% 30.14 in 10.0 mi NNW 9.2 mph - N/A   Clear
9:15 AM 48.9 °F - 39.7 °F 71% 30.14 in 10.0 mi NW 8.1 mph - N/A   Clear
9:35 AM 50.2 °F - 40.3 °F 69% 30.13 in 10.0 mi NW 8.1 mph - N/A   Clear
9:55 AM 52.2 °F - 40.6 °F 65% 30.13 in 10.0 mi NW 9.2 mph - N/A   Clear
10:15 AM 53.1 °F - 38.1 °F 57% 30.13 in 10.0 mi NNW 15.0 mph 18.4 mph N/A   Clear
10:35 AM 54.5 °F - 38.5 °F 55% 30.13 in 10.0 mi NNW 11.5 mph - N/A   Clear
10:55 AM 53.4 °F - 37.2 °F 54% 30.13 in 10.0 mi NW 12.7 mph 24.2 mph N/A   Scattered Clouds
11:15 AM 54.7 °F - 37.0 °F 51% 30.12 in 10.0 mi NW 16.1 mph 19.6 mph N/A   Mostly Cloudy
11:35 AM 54.1 °F - 36.0 °F 50% 30.11 in 10.0 mi NW 16.1 mph 21.9 mph N/A   Mostly Cloudy
11:55 AM 55.0 °F - 35.4 °F 48% 30.11 in 10.0 mi NW 12.7 mph 20.7 mph N/A   Mostly Cloudy
12:15 PM 56.5 °F - 35.4 °F 45% 30.10 in 10.0 mi WNW 13.8 mph 24.2 mph N/A   Mostly Cloudy
12:35 PM 56.8 °F - 35.2 °F 44% 30.09 in 10.0 mi NNW 17.3 mph 24.2 mph N/A   Mostly Cloudy
12:55 PM 57.4 °F - 35.1 °F 43% 30.08 in 10.0 mi WNW 13.8 mph 20.7 mph N/A   Scattered Clouds
1:15 PM 57.4 °F - 34.5 °F 42% 30.07 in 10.0 mi NW 20.7 mph 25.3 mph N/A   Scattered Clouds
1:35 PM 57.2 °F - 34.5 °F 43% 30.07 in 10.0 mi NW 12.7 mph 24.2 mph N/A   Scattered Clouds
1:55 PM 59.2 °F - 36.1 °F 42% 30.06 in 10.0 mi NW 13.8 mph 23.0 mph N/A   Scattered Clouds
2:15 PM 59.0 °F - 34.9 °F 40% 30.05 in 10.0 mi NNW 15.0 mph 26.5 mph N/A   Mostly Cloudy
2:35 PM 59.4 °F - 35.6 °F 41% 30.04 in 10.0 mi NW 13.8 mph 21.9 mph N/A   Mostly Cloudy
2:55 PM 59.7 °F - 34.7 °F 39% 30.03 in 10.0 mi WNW 18.4 mph 27.6 mph N/A   Mostly Cloudy
3:15 PM 59.4 °F - 34.5 °F 39% 30.02 in 10.0 mi NNW 15.0 mph 21.9 mph N/A   Overcast
3:35 PM 59.9 °F - 33.6 °F 37% 30.01 in 10.0 mi NNW 17.3 mph 24.2 mph N/A   Mostly Cloudy
3:55 PM 58.8 °F - 33.8 °F 39% 30.01 in 10.0 mi NW 15.0 mph 25.3 mph N/A   Overcast
4:15 PM 60.3 °F - 33.8 °F 37% 30.00 in 10.0 mi NW 12.7 mph 26.5 mph N/A   Overcast
4:35 PM 61.7 °F - 33.6 °F 35% 30.00 in 10.0 mi WNW 19.6 mph 24.2 mph N/A   Overcast
4:55 PM 59.9 °F - 32.7 °F 36% 29.99 in 10.0 mi NW 15.0 mph 25.3 mph N/A   Mostly Cloudy
5:15 PM 59.0 °F - 33.6 °F 38% 29.99 in 10.0 mi NNW 16.1 mph - N/A   Scattered Clouds
5:35 PM 61.0 °F - 33.8 °F 36% 29.98 in 10.0 mi NW 13.8 mph 24.2 mph N/A   Mostly Cloudy
5:55 PM 60.3 °F - 33.8 °F 37% 29.98 in 10.0 mi NW 16.1 mph 25.3 mph N/A   Scattered Clouds
6:15 PM 59.9 °F - 33.6 °F 37% 29.97 in 10.0 mi WNW 17.3 mph 20.7 mph N/A   Clear
6:35 PM 59.5 °F - 33.4 °F 37% 29.96 in 10.0 mi NW 11.5 mph 19.6 mph N/A   Clear
6:55 PM 59.0 °F - 32.7 °F 37% 29.96 in 10.0 mi NW 10.4 mph 21.9 mph N/A   Clear
7:15 PM 58.1 °F - 34.2 °F 41% 29.95 in 10.0 mi NW 9.2 mph - N/A   Clear
7:35 PM 57.0 °F - 35.4 °F 44% 29.95 in 10.0 mi NW 3.5 mph - N/A   Clear
7:55 PM 55.6 °F - 35.1 °F 46% 29.95 in 10.0 mi WNW 4.6 mph - N/A   Clear
8:15 PM 54.5 °F - 35.6 °F 49% 29.95 in 10.0 mi WNW 4.6 mph - N/A   Clear
8:35 PM 53.1 °F - 35.8 °F 52% 29.95 in 10.0 mi West 4.6 mph - N/A   Clear
8:55 PM 52.0 °F - 35.8 °F 54% 29.94 in 10.0 mi West 4.6 mph - N/A   Clear
9:15 PM 51.3 °F - 36.3 °F 57% 29.94 in 10.0 mi West 4.6 mph - N/A   Clear
9:35 PM 50.9 °F - 36.1 °F 57% 29.94 in 10.0 mi West 5.8 mph - N/A   Clear
9:55 PM 49.8 °F - 36.1 °F 59% 29.94 in 10.0 mi West 5.8 mph - N/A   Clear
10:15 PM 48.9 °F - 36.5 °F 62% 29.94 in 10.0 mi West 5.8 mph - N/A   Clear
10:35 PM 48.2 °F - 36.5 °F 64% 29.93 in 10.0 mi West 5.8 mph - N/A   Clear
10:55 PM 46.8 °F - 36.5 °F 67% 29.93 in 10.0 mi West 6.9 mph - N/A   Clear
11:15 PM 45.7 °F 42.7 °F 36.3 °F 70% 29.92 in 10.0 mi WSW 5.8 mph - N/A   Clear
11:35 PM 45.0 °F 41.2 °F 36.5 °F 72% 29.91 in 10.0 mi West 6.9 mph - N/A   Clear
11:55 PM 44.2 °F 41.0 °F 36.5 °F 74% 29.90 in 10.0 mi WSW 5.8 mph - N/A   Clear